Hourly Data Report for December 01, 2016

TORONTO CITY
ONTARIO

43°40'00.000" N
79°24'00.000" W
112.50 m
6158355
71508
XTO

Download Data

Hourly Data (December 2016)
Hourly Data Report for December 1, 2016
TIME
LST
Temp Definition
°C
Dew Point Definition
°C
Rel Hum Definition
%
Precip. Amount Definition
mm

Wind Dir Definition
10's deg

Wind Spd Definition
km/h
Visibility Definition
km
Stn Press Definition
kPa
Hmdx Definition


Wind Chill Definition


Weather Definition


00:00 9.1 7.6 90 0.7 LegendMM LegendMM   98.40     LegendNANA
01:00 8.4 6.8 90 0.2 LegendMM LegendMM   98.44     LegendNANA
02:00 7.3 5.4 88 0.0 LegendMM LegendMM   98.50     LegendNANA
03:00 5.4 1.3 75 0.0 LegendMM LegendMM   98.62     LegendNANA
04:00 4.9 0.8 75 0.0 LegendMM LegendMM   98.66     LegendNANA
05:00 5.0 0.5 73 0.0 LegendMM LegendMM   98.71     LegendNANA
06:00 5.7 0.8 71 0.0 LegendMM LegendMM   98.79     LegendNANA
07:00 5.7 1.1 73 0.0 LegendMM LegendMM   98.84     LegendNANA
08:00 5.7 0.1 67 0.0 LegendMM LegendMM   98.86     LegendNANA
09:00 5.4 0.8 72 0.0 LegendMM LegendMM   98.91     LegendNANA
10:00 5.2 0.8 73 0.0 LegendMM LegendMM   98.94     LegendNANA
11:00 5.5 0.0 68 0.0 LegendMM LegendMM   98.94     LegendNANA
12:00 6.5 0.2 64 0.0 LegendMM LegendMM   98.93     LegendNANA
13:00 6.0 0.2 66 0.0 LegendMM LegendMM   98.95     LegendNANA
14:00 6.2 0.4 67 0.0 LegendMM LegendMM   98.99     LegendNANA
15:00 6.3 0.0 64 0.0 LegendMM LegendMM   99.03     LegendNANA
16:00 5.9 0.3 67 0.0 LegendMM LegendMM   99.11     LegendNANA
17:00 5.8 0.4 68 0.0 LegendMM LegendMM   99.14     LegendNANA
18:00 5.7 0.3 69 0.0 LegendMM LegendMM   99.18     LegendNANA
19:00 6.0 0.6 68 0.0 LegendMM LegendMM   99.23     LegendNANA
20:00 5.8 1.0 71 0.0 LegendMM LegendMM   99.24     LegendNANA
21:00 5.7 1.1 73 0.0 LegendMM LegendMM   99.25     LegendNANA
22:00 6.0 1.1 71 0.0 LegendMM LegendMM   99.25     LegendNANA
23:00 5.8 1.5 74 0.0 LegendMM LegendMM   99.29     LegendNANA

Notes on Data Quality.

Legend

  • E = Estimated
  • M = Missing
  • NA = Not Available*
  • [empty] = Indicates an unobserved value
Date modified: